Weather History for Huntsville, AL

Change the Weather History Date:

Friday, June 6, 2014

  Actual Average Record
Temperature  
Mean Temperature 75 °F 76 °F  
Max Temperature 84 °F 87 °F 99 °F (1943)
Min Temperature 66 °F 65 °F 47 °F (1946)
Degree Days  
Heating Degree Days 0 0  
Month to date heating degree days 0 0  
Since 1 June heating degree days 0 0  
Since 1 July heating degree days 3463 3001  
Cooling Degree Days 10 11  
Month to date cooling degree days 73 62  
Year to date cooling degree days 344 325  
Since 1 June cooling degree days 73 62  
Growing Degree Days 25 (Base 50)    
Moisture  
Dew Point 68 °F    
Average Humidity 81    
Maximum Humidity 93    
Minimum Humidity 69    
Precipitation  
Precipitation 1.11 in 0.14 in 2.00 in (1911)
Month to date precipitation 2.34 0.86  
Year to date precipitation 25.81 25.23  
Snow  
Snow 0.00 in - - ()
Month to date snowfall 0.0  
Since 1 June snowfall 0.0  
Since 1 July snowfall 5.2  
Snow Depth 0.00 in    
Sea Level Pressure  
Sea Level Pressure 29.95 in    
Wind  
Wind Speed 4 mph (North)    
Max Wind Speed 23 mph    
Max Gust Speed 26 mph    
Visibility 9 miles    
Events Rain , Thunderstorm    
T = Trace of Precipitation, MM = Missing Value Source: NWS Daily Summary

Daily Weather History Graph

Daily Weather History Graph

Search for Another Location

Airport:

Trip Planner

Search our weather history database for the weather conditions in past years. The results will help you decide how hot, cold, wet, or windy it might be!

Date:

Astronomy

Jun. 06, 2014 Rise Set
Actual Time 5:34 AM CDT 7:57 PM CDT
Civil Twilight 5:04 AM CDT 8:27 PM CDT
Nautical Twilight 4:28 AM CDT 9:03 PM CDT
Astronomical Twilight 3:49 AM CDT 9:42 PM CDT
Moon 1:31 PM CDT (6/6) 1:09 AM CDT (6/6)
Length of Visible Light 15h 22m
Length of Day
14h 23m
First Quarter, 58% of the Moon is Illuminated
Jun 6
First Quarter
Jun 12
Full
Jun 19
Last Quarter
Jun 27
New
Jul 5
First Quarter

Hourly Weather History & Observations

Time (CDT) Temp. Heat Index Dew Point Humidity Pressure Visibility Wind Dir Wind Speed Gust Speed Precip Events Conditions
12:53 AM 66.9 °F - 64.9 °F 93% 29.94 in 10.0 mi Calm Calm - N/A   Clear
1:53 AM 66.9 °F - 64.9 °F 93% 29.91 in 10.0 mi SSE 3.5 mph - N/A   Partly Cloudy
2:43 AM 66.2 °F - 64.4 °F 94% 29.93 in 9.0 mi ESE 3.5 mph - N/A   Scattered Clouds
2:53 AM 66.0 °F - 64.9 °F 96% 29.91 in 10.0 mi Calm Calm - N/A   Scattered Clouds
3:53 AM 66.0 °F - 64.9 °F 96% 29.92 in 10.0 mi Calm Calm - N/A   Scattered Clouds
4:03 AM 66.2 °F - 64.4 °F 94% 29.93 in 10.0 mi Calm Calm - N/A   Mostly Cloudy
4:53 AM 66.9 °F - 64.9 °F 93% 29.94 in 10.0 mi Calm Calm - N/A   Mostly Cloudy
5:43 AM 66.2 °F - 64.4 °F 94% 29.96 in 8.0 mi SW 3.5 mph - N/A   Mostly Cloudy
5:48 AM 66.2 °F - 64.4 °F 94% 29.96 in 9.0 mi Calm Calm - N/A   Mostly Cloudy
5:53 AM 66.9 °F - 64.9 °F 93% 29.94 in 10.0 mi SSE 4.6 mph - N/A   Mostly Cloudy
6:27 AM 66.2 °F - 66.2 °F 100% 29.95 in 1.0 mi South 5.8 mph - N/A   Mostly Cloudy
6:30 AM 66.2 °F - 66.2 °F 100% 29.95 in 6.0 mi South 5.8 mph - N/A   Mostly Cloudy
6:53 AM 69.1 °F - 66.0 °F 90% 29.94 in 6.0 mi Calm Calm - N/A   Mostly Cloudy
7:53 AM 71.1 °F - 66.0 °F 84% 29.92 in 10.0 mi SE 6.9 mph - N/A   Scattered Clouds
8:53 AM 75.0 °F - 66.9 °F 76% 29.95 in 10.0 mi Calm Calm - N/A   Mostly Cloudy
9:53 AM 77.0 °F - 69.8 °F 78% 29.96 in 10.0 mi Calm Calm - N/A   Mostly Cloudy
10:09 AM 78.8 °F - 68.0 °F 69% 29.96 in 10.0 mi SSW 5.8 mph - N/A   Scattered Clouds
10:53 AM 80.1 °F 83.2 °F 70.0 °F 71% 29.94 in 10.0 mi Variable 4.6 mph - N/A   Mostly Cloudy
11:53 AM 82.9 °F 88.0 °F 72.0 °F 69% 29.94 in 10.0 mi NNE 4.6 mph - N/A   Mostly Cloudy
12:06 PM 82.4 °F 87.2 °F 71.6 °F 70% 29.94 in 10.0 mi Calm Calm - N/A   Mostly Cloudy
12:32 PM 78.8 °F - 69.8 °F 74% 29.94 in 10.0 mi NE 10.4 mph 20.7 mph N/A   Overcast
12:45 PM 78.8 °F - 69.8 °F 74% 29.94 in 10.0 mi NE 8.1 mph - N/A   Overcast
12:53 PM 78.1 °F - 69.1 °F 74% 29.93 in 10.0 mi NE 10.4 mph - N/A Thunderstorm Thunderstorm
1:21 PM 75.2 °F - 69.8 °F 83% 29.96 in 2.0 mi NNE 18.4 mph 25.3 mph 0.02 in Rain , Thunderstorm Heavy Thunderstorms and Rain
1:26 PM 73.4 °F - 68.0 °F 83% 29.97 in 1.5 mi North 16.1 mph 25.3 mph 0.09 in Rain , Thunderstorm Heavy Thunderstorms and Rain
1:37 PM 69.8 °F - 68.0 °F 94% 30.01 in 0.8 mi NNW 10.4 mph 19.6 mph 0.28 in Rain , Thunderstorm Heavy Thunderstorms and Rain
1:53 PM 69.1 °F - 68.0 °F 96% 29.96 in 0.8 mi NE 6.9 mph - 1.07 in Rain , Thunderstorm Heavy Thunderstorms and Rain
1:58 PM 69.8 °F - 68.0 °F 94% 29.98 in 3.0 mi NNE 11.5 mph - 0.02 in Rain , Thunderstorm Light Thunderstorms and Rain
2:29 PM 71.6 °F - 69.8 °F 94% 29.95 in 10.0 mi ENE 9.2 mph - 0.02 in   Overcast
2:53 PM 75.0 °F - 70.0 °F 84% 29.91 in 10.0 mi East 4.6 mph - 0.02 in   Mostly Cloudy
4:53 PM 75.0 °F - 71.1 °F 87% 29.95 in 10.0 mi SSW 6.9 mph - N/A   Mostly Cloudy
5:24 PM 75.2 °F - 71.6 °F 89% 29.98 in 10.0 mi West 11.5 mph - N/A   Mostly Cloudy
5:45 PM 73.4 °F - 69.8 °F 88% 29.98 in 10.0 mi WSW 3.5 mph - N/A   Overcast
5:49 PM 73.4 °F - 69.8 °F 88% 29.98 in 10.0 mi West 4.6 mph - N/A   Overcast
5:53 PM 73.9 °F - 70.0 °F 87% 29.97 in 10.0 mi West 4.6 mph - N/A   Overcast
6:05 PM 73.4 °F - 69.8 °F 88% 29.98 in 10.0 mi NW 3.5 mph - N/A Thunderstorm Thunderstorm
6:46 PM 73.4 °F - 68.0 °F 83% 29.98 in 8.0 mi NNW 9.2 mph - 0.00 in Rain Light Rain
6:53 PM 72.0 °F - 66.0 °F 81% 29.96 in 10.0 mi NW 10.4 mph - 0.00 in Rain Light Rain
7:53 PM 70.0 °F - 66.0 °F 87% 29.90 in 10.0 mi East 12.7 mph - 0.02 in Rain Light Rain
8:53 PM 69.1 °F - 66.9 °F 93% 29.90 in 10.0 mi WSW 4.6 mph - 0.00 in   Overcast
9:53 PM 69.1 °F - 66.0 °F 90% 29.91 in 10.0 mi WNW 3.5 mph - N/A   Overcast
10:53 PM 69.1 °F - 66.9 °F 93% 29.94 in 10.0 mi Calm Calm - N/A   Overcast
11:11 PM 69.8 °F - 66.2 °F 88% 29.96 in 10.0 mi Calm Calm - N/A   Mostly Cloudy
11:53 PM 69.1 °F - 66.9 °F 93% 29.96 in 10.0 mi Calm Calm - N/A   Overcast